PTG57 EDDS-EDLN

Flight info

Callsign PTG57
Flight time N/A
Altitude 24000
Route VESID4B VESID DCT ERLET DCT OLIVI DCT SIPVU DCT PIPEP DCT NVO NVO1J
Aircraft C750/M-SBDE3FGHRWXY/S

Departure

Time 2026-05-04 05:36
Airport Stuttgart Airport (EDDS)

Arrival

Time N/A
Airport Mönchengladbach Airport (EDLN)
Time Latitude Longitude Altitude Speed Heading
2026-05-04 05:29 48.69181 9.20555 1276 ft 0 kts 24°
2026-05-04 05:29 48.69167 9.20580 1274 ft 8 kts 155°
2026-05-04 05:29 48.69160 9.20711 1270 ft 19 kts 73°
2026-05-04 05:31 48.69022 9.21454 1247 ft 16 kts 73°
2026-05-04 05:31 48.69061 9.21648 1240 ft 21 kts 72°
2026-05-04 05:32 48.69113 9.21880 1233 ft 25 kts 70°
2026-05-04 05:32 48.69166 9.22110 1227 ft 17 kts 89°
2026-05-04 05:32 48.69184 9.22282 1223 ft 18 kts 76°
2026-05-04 05:33 48.69236 9.22569 1220 ft 20 kts 75°
2026-05-04 05:34 48.69236 9.22571 1220 ft 20 kts 75°
2026-05-04 05:34 48.69263 9.22773 1217 ft 17 kts 73°
2026-05-04 05:34 48.69307 9.22960 1214 ft 19 kts 70°
2026-05-04 05:35 48.69335 9.23091 1212 ft 11 kts 73°
2026-05-04 05:35 48.69294 9.23139 1211 ft 11 kts 220°
2026-05-04 05:35 48.69238 9.23058 1212 ft 11 kts 224°
2026-05-04 05:35 48.69180 9.22975 1213 ft 11 kts 218°
2026-05-04 05:36 48.69120 9.22894 1214 ft 17 kts 246°
2026-05-04 05:36 48.68987 9.22207 1224 ft 127 kts 254°
2026-05-04 05:36 48.68671 9.20558 1672 ft 189 kts 255°
2026-05-04 05:36 48.68317 9.18494 2703 ft 222 kts 257°
2026-05-04 05:37 48.68044 9.16104 3874 ft 243 kts 273°
2026-05-04 05:37 48.68670 9.13685 4860 ft 269 kts 305°
2026-05-04 05:37 48.69931 9.11657 4937 ft 264 kts 322°
2026-05-04 05:38 48.73110 9.09095 5074 ft 261 kts 334°
2026-05-04 05:38 48.74780 9.07944 5556 ft 266 kts 334°
2026-05-04 05:38 48.76500 9.06769 6548 ft 275 kts 334°
2026-05-04 05:38 48.78209 9.05610 8106 ft 282 kts 334°
2026-05-04 05:39 48.79960 9.04420 9817 ft 284 kts 333°
2026-05-04 05:39 48.83580 9.01958 12763 ft 297 kts 332°
2026-05-04 05:39 48.85440 9.00684 14036 ft 307 kts 332°
2026-05-04 05:40 48.89587 8.97841 15848 ft 350 kts 333°
2026-05-04 05:40 48.91871 8.96281 16764 ft 369 kts 333°
2026-05-04 05:40 48.94261 8.94643 17664 ft 386 kts 333°
2026-05-04 05:41 48.96742 8.92946 18555 ft 401 kts 334°
2026-05-04 05:41 48.99333 8.91173 19469 ft 414 kts 334°
2026-05-04 05:41 49.01969 8.89362 20359 ft 426 kts 333°
2026-05-04 05:41 49.04665 8.87511 21146 ft 427 kts 333°
2026-05-04 05:42 49.07394 8.85631 21641 ft 432 kts 333°
2026-05-04 05:42 49.10142 8.83738 22153 ft 436 kts 333°
2026-05-04 05:42 49.12920 8.81823 22659 ft 439 kts 333°
2026-05-04 05:42 49.15628 8.79846 23136 ft 439 kts 327°
2026-05-04 05:43 49.17926 8.76718 23625 ft 432 kts 305°
2026-05-04 05:43 49.19716 8.73012 23965 ft 432 kts 304°
2026-05-04 05:43 49.21528 8.69360 23997 ft 439 kts 303°
2026-05-04 05:45 49.34566 8.42780 23993 ft 443 kts 303°
2026-05-04 05:45 49.36387 8.39043 23996 ft 442 kts 303°
2026-05-04 05:47 49.52680 8.17660 23991 ft 447 kts 319°
2026-05-04 05:47 49.55143 8.14807 23991 ft 446 kts 319°
2026-05-04 05:47 49.57642 8.11906 23989 ft 446 kts 319°
2026-05-04 05:48 49.60110 8.09041 23987 ft 446 kts 319°
2026-05-04 05:48 49.62607 8.06135 23987 ft 446 kts 319°
2026-05-04 05:48 49.65078 8.03259 23987 ft 446 kts 319°
2026-05-04 05:48 49.67547 8.00379 23985 ft 448 kts 319°
2026-05-04 05:49 49.70065 7.97439 23989 ft 454 kts 319°
2026-05-04 05:49 49.72597 7.94475 23991 ft 460 kts 319°
2026-05-04 05:49 49.75126 7.91519 23991 ft 465 kts 319°
2026-05-04 05:49 49.77727 7.88469 23988 ft 470 kts 319°
2026-05-04 05:51 49.96340 7.66521 23986 ft 489 kts 319°
2026-05-04 05:51 49.99962 7.62230 23988 ft 490 kts 319°
2026-05-04 05:52 50.01770 7.60080 23988 ft 491 kts 319°
2026-05-04 05:52 50.04496 7.56840 23986 ft 492 kts 319°
2026-05-04 05:52 50.07216 7.53600 23991 ft 492 kts 319°
2026-05-04 05:52 50.10841 7.49274 23701 ft 494 kts 319°
2026-05-04 05:53 50.12622 7.47154 23503 ft 478 kts 319°
2026-05-04 05:54 50.28028 7.28505 21301 ft 386 kts 325°
2026-05-04 05:55 50.30198 7.26530 21008 ft 380 kts 325°
2026-05-04 05:55 50.32482 7.24447 20696 ft 374 kts 325°
2026-05-04 05:55 50.34732 7.22380 20384 ft 369 kts 325°
2026-05-04 05:55 50.36940 7.20344 20079 ft 365 kts 325°
2026-05-04 05:56 50.39037 7.18411 19784 ft 362 kts 325°
2026-05-04 05:56 50.41185 7.16415 19479 ft 359 kts 325°
2026-05-04 05:56 50.43110 7.14624 19204 ft 356 kts 325°
2026-05-04 05:56 50.44946 7.12902 18941 ft 354 kts 325°
2026-05-04 05:57 50.46424 7.11516 18727 ft 352 kts 325°
2026-05-04 05:57 50.48899 7.09188 18369 ft 350 kts 325°
2026-05-04 05:57 50.50840 7.07347 18090 ft 348 kts 325°
2026-05-04 05:57 50.53629 7.04695 17685 ft 345 kts 325°
2026-05-04 05:58 50.54999 7.03391 17485 ft 344 kts 325°
2026-05-04 05:58 50.56651 7.01818 17245 ft 343 kts 325°
2026-05-04 05:58 50.57954 7.00584 17057 ft 342 kts 325°
2026-05-04 05:58 50.59313 6.99296 16859 ft 341 kts 325°
2026-05-04 05:59 50.61160 6.97537 16588 ft 340 kts 323°